Location: Berua Church
(35.0423°N, 88.5987°W)
Time: 19:07:51
(UTC+00:00)

Cosmos 2251 Rocket - Pass Details

Date: 08 December 2019
Orbit: 765 x 791 km, 74.0° (Epoch: 26 January)

Event Time Altitude Azimuth Distance (km) Brightness Sun altitude
Rises 23:29:37 0° 205° (SSW) 3,258 7.5 -9.6°
Reaches altitude 10° 23:32:02 10° 209° (SSW) 2,330 6.8 -10.1°
Maximum altitude 23:37:15 60° 289° (WNW) 890 4.1 -11.1°
Drops below altitude 10° 23:42:29 10° 9° (N) 2,326 5.7 -12.1°
Sets 23:44:54 0° 14° (NNE) 3,253 6.4 -12.5°
